Date String (YYYY-MM-DD hh:mm:ss) UTC,Instrument flags,Ambient pressure (hPa),Sample flow (lpm),Bypass flow (lpm),Sample temperature (°C),Ambient temperature (°C),ASC tube jacket temperature (°C),LED temperature (°C),Box temperature (°C),Sample RH (%),Span deviation,Mass concentration (μg/m³),Mass concentration (μg/m³),Mass concentration (μg/m³)
DateTimeUTC,F1_M11,P_M11,Q1_M11,Q2_M11,T1_M11,T2_M11,T3_M11,T4_M11,T5_M11,U1_M11,ZSPAN_M11,X0_M11,X2_M11,X1_M11
2022-12-20 00:00:00,,0826.0,5.02,0.00,21.6,20.2,00.0,30.5,23.2,04.7,0000.0,0001.49,0001.04,0000.86
2022-12-20 00:01:00,,0826.0,4.99,0.00,21.7,21.4,00.0,30.5,23.6,04.6,0000.0,0001.69,0001.03,0000.85
2022-12-20 00:02:00,,0826.0,5.00,0.00,21.8,21.9,00.0,30.6,23.8,04.6,0000.0,0001.83,0001.06,0000.84
2022-12-20 00:03:00,,0826.0,4.96,0.00,21.8,21.5,00.0,30.6,23.7,04.6,0000.0,0001.94,0001.10,0000.84
2022-12-20 00:04:00,,0825.9,5.03,0.00,21.8,21.1,00.0,30.7,23.6,04.6,0000.0,0002.04,0001.13,0000.85
2022-12-20 00:05:00,,0826.0,5.01,0.00,21.8,20.8,00.0,30.7,23.5,04.6,0000.0,0002.12,0001.16,0000.85
2022-12-20 00:06:00,,0826.0,4.97,0.00,21.8,20.5,00.0,30.6,23.3,04.6,0000.0,0002.23,0001.19,0000.83
2022-12-20 00:07:00,,0825.9,5.03,0.00,21.7,20.3,00.0,30.6,23.3,04.5,0000.0,0002.33,0001.20,0000.83
2022-12-20 00:08:00,,0825.9,5.02,0.00,21.7,20.1,00.0,30.6,23.2,04.6,0000.0,0002.33,0001.20,0000.84
2022-12-20 00:09:00,,0825.9,4.97,0.00,21.6,19.9,00.0,30.6,23.1,04.5,0000.0,0002.32,0001.18,0000.83
2022-12-20 00:10:00,,0826.0,4.98,0.00,21.6,19.9,00.0,30.6,23.1,04.5,0000.0,0002.31,0001.18,0000.82
2022-12-20 00:11:00,,0826.1,5.02,0.00,21.6,20.8,00.0,30.5,23.3,04.5,0000.0,0002.27,0001.17,0000.82
2022-12-20 00:12:00,,0826.0,4.97,0.00,21.8,21.8,00.0,30.5,23.7,04.5,0000.0,0003.35,0001.16,0000.83
2022-12-20 00:13:00,,0825.8,5.03,0.00,21.8,21.8,00.0,30.6,23.7,04.5,0000.0,0003.33,0001.16,0000.83
2022-12-20 00:14:00,,0826.0,4.96,0.00,21.8,21.4,00.0,30.6,23.6,04.4,0000.0,0003.17,0001.10,0000.83
2022-12-20 00:15:00,,0826.0,5.03,0.00,21.8,21.0,00.0,30.6,23.5,04.5,0000.0,0003.08,0001.06,0000.81
2022-12-20 00:16:00,,0826.0,4.95,0.00,21.8,20.7,00.0,30.6,23.4,04.4,0000.0,0003.14,0001.07,0000.82
2022-12-20 00:17:00,,0826.0,5.03,0.00,21.8,20.4,00.0,30.6,23.3,04.5,0000.0,0003.19,0001.08,0000.81
2022-12-20 00:18:00,,0826.0,5.01,0.00,21.7,20.2,00.0,30.6,23.2,04.5,0000.0,0003.13,0001.10,0000.82
2022-12-20 00:19:00,,0826.0,4.96,0.00,21.7,20.0,00.0,30.6,23.2,04.4,0000.0,0003.23,0001.15,0000.83
2022-12-20 00:20:00,,0825.9,5.00,0.00,21.6,19.8,00.0,30.6,23.1,04.5,0000.0,0003.22,0001.15,0000.83
2022-12-20 00:21:00,,0826.0,5.02,0.00,21.6,19.7,00.0,30.5,23.0,04.4,0000.0,0003.23,0001.16,0000.82
2022-12-20 00:22:00,,0826.2,5.01,0.00,21.6,20.5,00.0,30.5,23.2,04.5,0000.0,0003.33,0001.19,0000.82
2022-12-20 00:23:00,,0826.1,4.99,0.00,21.7,21.6,00.0,30.5,23.6,04.4,0000.0,0002.52,0001.27,0000.83
2022-12-20 00:24:00,,0826.1,4.98,0.00,21.8,22.4,00.0,30.5,23.8,04.3,0000.0,0002.39,0001.33,0000.82
2022-12-20 00:25:00,,0826.1,5.04,0.00,21.9,22.1,00.0,30.6,23.8,04.3,0000.0,0002.35,0001.31,0000.81
2022-12-20 00:26:00,,0826.0,4.96,0.00,21.9,21.4,00.0,30.7,23.7,04.3,0000.0,0002.32,0001.30,0000.82
2022-12-20 00:27:00,,0826.1,5.03,0.00,21.8,21.1,00.0,30.7,23.5,04.4,0000.0,0003.17,0001.29,0000.81
2022-12-20 00:28:00,,0826.1,4.96,0.00,21.8,20.7,00.0,30.7,23.4,04.4,0000.0,0003.71,0001.26,0000.81
2022-12-20 00:29:00,,0826.1,5.02,0.00,21.8,20.5,00.0,30.7,23.3,04.4,0000.0,0003.60,0001.20,0000.80
2022-12-20 00:30:00,,0826.1,5.03,0.00,21.7,20.3,00.0,30.6,23.3,04.3,0000.0,0003.46,0001.14,0000.80
2022-12-20 00:31:00,,0826.1,4.97,0.00,21.7,20.1,00.0,30.6,23.2,04.4,0000.0,0003.52,0001.17,0000.80
2022-12-20 00:32:00,,0826.1,5.00,0.00,21.7,20.0,00.0,30.6,23.1,04.4,0000.0,0003.87,0001.18,0000.80
2022-12-20 00:33:00,,0826.1,5.02,0.00,21.6,19.8,00.0,30.6,23.1,04.3,0000.0,0004.76,0001.18,0000.80
2022-12-20 00:34:00,,0826.1,5.01,0.00,21.6,19.8,00.0,30.5,23.1,04.3,0000.0,0004.61,0001.10,0000.79
2022-12-20 00:35:00,,0826.1,4.95,0.00,21.6,20.7,00.0,30.5,23.3,04.2,0000.0,0004.38,0001.03,0000.78
2022-12-20 00:36:00,,0826.2,5.05,0.00,21.7,21.8,00.0,30.5,23.7,04.3,0000.0,0004.52,0001.09,0000.78
2022-12-20 00:37:00,,0826.1,4.96,0.00,21.8,21.8,00.0,30.6,23.8,04.2,0000.0,0004.85,0001.13,0000.78
2022-12-20 00:38:00,,0826.1,5.04,0.00,21.8,21.4,00.0,30.6,23.7,04.1,0000.0,0005.47,0001.10,0000.77
2022-12-20 00:39:00,,0826.1,4.97,0.00,21.8,21.0,00.0,30.6,23.5,04.2,0000.0,0004.24,0001.08,0000.76
2022-12-20 00:40:00,,0826.0,5.01,0.00,21.8,20.7,00.0,30.6,23.4,04.1,0000.0,0004.20,0001.07,0000.77
2022-12-20 00:41:00,,0826.0,5.03,0.00,21.8,20.4,00.0,30.6,23.3,04.2,0000.0,0004.24,0001.07,0000.76
2022-12-20 00:42:00,,0826.1,4.98,0.00,21.7,20.2,00.0,30.6,23.2,04.1,0000.0,0004.18,0001.04,0000.75
2022-12-20 00:43:00,,0826.1,4.97,0.00,21.6,20.0,00.0,30.6,23.1,04.0,0000.0,0004.03,0000.98,0000.74
2022-12-20 00:44:00,,0826.2,5.03,0.00,21.6,19.8,00.0,30.6,23.1,04.1,0000.0,0003.08,0001.00,0000.74
2022-12-20 00:45:00,,0826.2,5.02,0.00,21.5,20.0,00.0,30.5,23.1,04.1,0000.0,0003.18,0001.03,0000.73
2022-12-20 00:46:00,,0826.1,4.96,0.00,21.6,21.1,00.0,30.5,23.4,04.1,0000.0,0003.44,0001.04,0000.73
2022-12-20 00:47:00,,0826.2,5.04,0.00,21.8,22.2,00.0,30.5,23.8,04.1,0000.0,0003.42,0001.03,0000.73
2022-12-20 00:48:00,,0826.2,4.97,0.00,21.9,22.3,00.0,30.6,23.9,04.0,0000.0,0003.25,0001.00,0000.74
2022-12-20 00:49:00,,0826.2,5.04,0.00,21.9,21.7,00.0,30.6,23.8,04.0,0000.0,0002.17,0001.01,0000.74
2022-12-20 00:50:00,,0826.2,4.96,0.00,21.9,21.3,00.0,30.7,23.7,03.9,0000.0,0002.16,0001.02,0000.74
2022-12-20 00:51:00,,0826.0,5.04,0.00,21.9,20.9,00.0,30.7,23.5,03.9,0000.0,0002.16,0001.02,0000.73
2022-12-20 00:52:00,,0826.1,4.96,0.00,21.8,20.6,00.0,30.7,23.4,03.9,0000.0,0002.14,0001.02,0000.73
2022-12-20 00:53:00,,0826.2,5.01,0.00,21.8,20.3,00.0,30.6,23.3,03.9,0000.0,0002.20,0001.03,0000.72
2022-12-20 00:54:00,,0826.2,5.03,0.00,21.7,20.1,00.0,30.6,23.2,03.9,0000.0,0002.53,0001.06,0000.72
2022-12-20 00:55:00,,0826.1,5.02,0.00,21.7,19.9,00.0,30.6,23.1,03.9,0000.0,0002.49,0001.07,0000.71
2022-12-20 00:56:00,,0826.2,4.96,0.00,21.6,19.7,00.0,30.6,23.0,03.9,0000.0,0002.48,0001.07,0000.71
2022-12-20 00:57:00,,0826.2,5.02,0.00,21.6,20.2,00.0,30.5,23.2,03.9,0000.0,0002.43,0001.05,0000.72
2022-12-20 00:58:00,,0826.3,5.04,0.00,21.7,21.3,00.0,30.5,23.5,03.9,0000.0,0002.40,0001.02,0000.71
2022-12-20 00:59:00,,0826.3,4.97,0.00,21.8,22.2,00.0,30.6,23.8,03.9,0000.0,0002.48,0001.04,0000.71
